| time (UTC) | temp F | wind direction | speed knots | gust knots | rain 1hr in | rain 24hr in | rain mn in | humidity % | barometer mb |
| 20260506080105 | 38 | 360 | 16.5 | 20.9 | 0.00 | 0.00 | 0.00 | 83 | 1006.6 |
| 20260506073101 | 37 | 360 | 13.9 | 19.1 | 0.00 | 0.00 | 0.00 | 84 | 1006.1 |
| 20260506071600 | 37 | 360 | 14.8 | 20.0 | 0.00 | 0.00 | 0.00 | 83 | 1005.9 |
| 20260506061601 | 38 | 360 | 13.0 | 17.4 | 0.00 | 0.00 | 0.00 | 81 | 1004.9 |
| 20260506044601 | 38 | 360 | 8.7 | 17.4 | 0.00 | 0.00 | 0.00 | 81 | 1003.7 |
| 20260506043002 | 38 | 360 | 10.4 | 19.1 | 0.00 | 0.00 | 0.00 | 81 | 1003.6 |
| 20260506041514 | 38 | 360 | 9.6 | 19.1 | 0.00 | 0.00 | 0.00 | 81 | 1003.6 |
| 20260506040101 | 38 | 360 | 11.3 | 18.2 | 0.00 | 0.00 | 0.00 | 81 | 1003.4 |
| 20260506034603 | 38 | 360 | 11.3 | 19.1 | 0.00 | 0.00 | 0.00 | 81 | 1003.3 |
| 20260506033101 | 38 | 360 | 11.3 | 18.2 | 0.00 | 0.00 | 0.00 | 81 | 1003.2 |
| 20260506031610 | 38 | 360 | 12.2 | 18.2 | 0.00 | 0.00 | 0.00 | 81 | 1003.0 |
| 20260506030001 | 38 | 360 | 9.6 | 20.0 | 0.00 | 0.00 | 0.00 | 81 | 1002.9 |
| 20260506024501 | 38 | 360 | 9.6 | 19.1 | 0.00 | 0.00 | 0.00 | 81 | 1002.9 |
| 20260506023112 | 38 | 360 | 10.4 | 18.2 | 0.00 | 0.00 | 0.00 | 80 | 1002.7 |
| 20260506021605 | 38 | 360 | 11.3 | 17.4 | 0.00 | 0.00 | 0.00 | 80 | 1002.6 |
| 20260506020002 | 38 | 360 | 10.4 | 20.0 | 0.00 | 0.00 | 0.00 | 80 | 1002.6 |
| 20260506014601 | 38 | 360 | 11.3 | 19.1 | 0.00 | 0.00 | 0.00 | 79 | 1002.5 |
| 20260506013001 | 38 | 360 | 12.2 | 20.0 | 0.00 | 0.00 | 0.00 | 78 | 1002.4 |
| 20260506011607 | 38 | 360 | 11.3 | 17.4 | 0.00 | 0.00 | 0.00 | 79 | 1002.2 |
| 20260506010008 | 38 | 360 | 12.2 | 21.7 | 0.00 | 0.00 | 0.00 | 79 | 1002.1 |
| 20260506004511 | 39 | 360 | 10.4 | 20.0 | 0.00 | 0.00 | 0.00 | 79 | 1002.0 |
| 20260506003002 | 39 | 360 | 10.4 | 20.0 | 0.00 | 0.00 | 0.00 | 79 | 1001.9 |
| 20260506001501 | 39 | 360 | 10.4 | 17.4 | 0.00 | 0.00 | 0.00 | 79 | 1001.9 |
| 20260506000105 | 39 | 360 | 8.7 | 18.2 | 0.00 | 0.00 | 0.00 | 80 | 1001.7 |
| 20260505234502 | 39 | 360 | 9.6 | 17.4 | 0.00 | 0.00 | 0.00 | 80 | 1001.7 |
| 20260505233019 | 39 | 360 | 11.3 | 16.5 | 0.00 | 0.00 | 0.00 | 78 | 1001.6 |
| 20260505231501 | 39 | 360 | 10.4 | 19.1 | 0.00 | 0.00 | 0.00 | 78 | 1001.5 |
| 20260505230012 | 40 | 360 | 12.2 | 19.1 | 0.00 | 0.00 | 0.00 | 77 | 1001.6 |
| 20260505224502 | 40 | 360 | 11.3 | 19.1 | 0.00 | 0.00 | 0.00 | 76 | 1001.6 |
| 20260505223001 | 40 | 360 | 9.6 | 18.2 | 0.00 | 0.00 | 0.00 | 76 | 1001.5 |
| 20260505221604 | 40 | 360 | 12.2 | 18.2 | 0.00 | 0.00 | 0.00 | 76 | 1001.5 |
| 20260505220006 | 40 | 360 | 10.4 | 15.6 | 0.00 | 0.00 | 0.00 | 77 | 1001.5 |
| 20260505214502 | 41 | 360 | 7.8 | 13.9 | 0.00 | 0.01 | 0.00 | 78 | 1001.5 |
| 20260505213002 | 41 | 360 | 10.4 | 15.6 | 0.00 | 0.01 | 0.00 | 74 | 1001.5 |
| 20260505211502 | 41 | 360 | 8.7 | 15.6 | 0.00 | 0.01 | 0.00 | 74 | 1001.4 |
| 20260505210108 | 41 | 360 | 7.0 | 13.9 | 0.00 | 0.01 | 0.00 | 76 | 1001.3 |
| 20260505204511 | 41 | 360 | 8.7 | 16.5 | 0.00 | 0.15 | 0.01 | 75 | 1001.1 |
| 20260505203001 | 41 | 360 | 7.0 | 15.6 | 0.00 | 0.15 | 0.01 | 76 | 1001.1 |
| 20260505201601 | 40 | 360 | 6.1 | 13.9 | 0.00 | 0.15 | 0.01 | 77 | 1001.0 |
| 20260505200110 | 41 | 360 | 7.0 | 11.3 | 0.00 | 0.15 | 0.01 | 77 | 1001.0 |
| 20260505194502 | 41 | 360 | 7.0 | 12.2 | 0.00 | 0.23 | 0.01 | 77 | 1000.9 |
| 20260505193003 | 41 | 360 | 5.2 | 11.3 | 0.00 | 0.23 | 0.01 | 78 | 1000.9 |
| 20260505191502 | 41 | 360 | 7.0 | 13.9 | 0.00 | 0.23 | 0.01 | 79 | 1000.8 |
| 20260505184601 | 42 | 360 | 7.0 | 13.0 | 0.00 | 0.23 | 0.01 | 72 | 1000.6 |
| 20260505183101 | 43 | 360 | 10.4 | 18.2 | 0.00 | 0.23 | 0.01 | 65 | 1000.5 |
| 20260505181601 | 42 | 360 | 7.0 | 12.2 | 0.00 | 0.23 | 0.01 | 74 | 1000.3 |
| 20260505174511 | 42 | 360 | 13.9 | 16.5 | 0.00 | 0.23 | 0.01 | 76 | 1000.1 |
| 20260505173002 | 43 | 360 | 6.1 | 12.2 | 0.00 | 0.23 | 0.01 | 77 | 1000.1 |
| 20260505171601 | 42 | 360 | 6.1 | 15.6 | 0.00 | 0.23 | 0.01 | 80 | 1000.0 |
| 20260505170011 | 42 | 360 | 13.0 | 15.6 | 0.00 | 0.23 | 0.01 | 81 | 1000.0 |
| 20260505164602 | 42 | 360 | 13.0 | 19.1 | 0.00 | 0.23 | 0.01 | 83 | 1000.0 |
| 20260505163003 | 42 | 360 | 14.8 | 19.1 | 0.00 | 0.23 | 0.01 | 83 | 1000.1 |
| 20260505161610 | 42 | 360 | 16.5 | 20.9 | 0.00 | 0.23 | 0.01 | 81 | 999.9 |
| 20260505153004 | 43 | 360 | 16.5 | 20.0 | 0.00 | 0.23 | 0.01 | 77 | 999.7 |
| 20260505151548 | 43 | 360 | 16.5 | 20.9 | 0.00 | 0.23 | 0.01 | 78 | 999.7 |
| 20260505124505 | 42 | 360 | 17.4 | 20.9 | 0.00 | 0.23 | 0.01 | 74 | 998.8 |
| 20260505123003 | 42 | 360 | 17.4 | 19.1 | 0.00 | 0.23 | 0.01 | 75 | 998.7 |
| 20260505121505 | 41 | 360 | 16.5 | 20.9 | 0.00 | 0.23 | 0.01 | 76 | 998.6 |
| 20260505120013 | 41 | 360 | 17.4 | 20.9 | 0.00 | 0.23 | 0.01 | 77 | 998.5 |
| 20260505114503 | 41 | 360 | 17.4 | 21.7 | 0.00 | 0.23 | 0.01 | 77 | 998.4 |
| 20260505113117 | 41 | 360 | 18.2 | 21.7 | 0.00 | 0.23 | 0.01 | 78 | 998.2 |
| 20260505111512 | 41 | 360 | 16.5 | 20.9 | 0.00 | 0.23 | 0.01 | 79 | 998.1 |
| 20260505101551 | 40 | 360 | 16.5 | 21.7 | 0.00 | 0.23 | 0.01 | 80 | 997.5 |
| 20260505094636 | 39 | 360 | 15.6 | 19.1 | 0.00 | 0.23 | 0.01 | 81 | 997.3 |
| 20260505093103 | 39 | 360 | 13.9 | 18.2 | 0.00 | 0.23 | 0.01 | 81 | 997.2 |
| 20260505091502 | 39 | 360 | 13.0 | 18.2 | 0.00 | 0.23 | 0.01 | 81 | 997.1 |
| 20260505090106 | 39 | 360 | 13.9 | 17.4 | 0.00 | 0.23 | 0.01 | 82 | 996.8 |
| 20260505084510 | 39 | 360 | 14.8 | 20.0 | 0.00 | 0.23 | 0.01 | 80 | 996.7 |
| 20260505083111 | 39 | 360 | 15.6 | 19.1 | 0.00 | 0.23 | 0.01 | 81 | 996.5 |
| 20260505081610 | 38 | 360 | 13.9 | 20.0 | 0.00 | 0.23 | 0.01 | 82 | 996.4 |